Weather History for Fayetteville, NC

Change the Weather History Date:

Thursday, August 15, 2013

  Actual Average Record
Temperature  
Mean Temperature 72 °F 80 °F  
Max Temperature 80 °F 90 °F 100 °F (1935)
Min Temperature 63 °F 70 °F 54 °F (1964)
Degree Days  
Heating Degree Days 0 0  
Month to date heating degree days 0 0  
Since 1 June heating degree days 0 0  
Since 1 July heating degree days 0 0  
Cooling Degree Days 7 15  
Month to date cooling degree days 242 232  
Year to date cooling degree days 1385 1419  
Since 1 June cooling degree days 1136 1135  
Growing Degree Days 21 (Base 50)    
Moisture  
Dew Point 59 °F    
Average Humidity 65    
Maximum Humidity 81    
Minimum Humidity 48    
Precipitation  
Precipitation 0.01 in 0.19 in 2.00 in (1911)
Month to date precipitation 0.18 2.80  
Year to date precipitation 29.20 28.74  
Sea Level Pressure  
Sea Level Pressure 30.08 in    
Wind  
Wind Speed 6 mph (NE)    
Max Wind Speed 14 mph    
Max Gust Speed 21 mph    
Visibility 10 miles    
Events Rain    
T = Trace of Precipitation, MM = Missing Value Source: NWS Daily Summary

Daily Weather History Graph

Daily Weather History Graph

Search for Another Location

Airport:

Trip Planner

Search our weather history database for the weather conditions in past years. The results will help you decide how hot, cold, wet, or windy it might be!

Date:

Astronomy

Aug. 15, 2013 Rise Set
Actual Time 6:35 AM EDT 8:03 PM EDT
Civil Twilight 6:08 AM EDT 8:30 PM EDT
Nautical Twilight 5:36 AM EDT 9:02 PM EDT
Astronomical Twilight 5:03 AM EDT 9:35 PM EDT
Moon 3:14 PM EDT (8/15) 12:47 AM EDT (8/15)
Length of Visible Light 14h 21m
Length of Day
13h 27m
Waxing Gibbous, 64% of the Moon is Illuminated
Aug 15
Waxing Gibbous
Aug 20
Full
Aug 28
Last Quarter
Sep 5
New
Sep 12
First Quarter

Hourly Weather History & Observations

Time (EDT) Temp. Dew Point Humidity Pressure Visibility Wind Dir Wind Speed Gust Speed Precip Events Conditions
12:53 AM 66.0 °F 61.0 °F 84% 30.05 in 10.0 mi NNE 5.8 mph - N/A   Clear
1:53 AM 66.9 °F 59.0 °F 76% 30.05 in 10.0 mi NE 5.8 mph - N/A   Scattered Clouds
2:53 AM 66.0 °F 60.1 °F 81% 30.05 in 10.0 mi NE 3.5 mph - N/A   Overcast
3:53 AM 66.0 °F 57.9 °F 75% 30.05 in 10.0 mi NE 4.6 mph - N/A   Overcast
4:53 AM 66.0 °F 57.9 °F 75% 30.06 in 10.0 mi NE 5.8 mph - N/A   Overcast
5:53 AM 64.9 °F 57.9 °F 78% 30.07 in 10.0 mi NNE 5.8 mph - N/A   Overcast
6:53 AM 64.0 °F 57.9 °F 80% 30.10 in 10.0 mi NNE 3.5 mph - N/A   Overcast
7:53 AM 64.9 °F 57.9 °F 78% 30.12 in 10.0 mi ENE 4.6 mph - N/A   Overcast
8:53 AM 64.0 °F 57.9 °F 80% 30.10 in 10.0 mi NE 5.8 mph - 0.00 in Rain Light Rain
9:53 AM 64.9 °F 59.0 °F 81% 30.13 in 10.0 mi Calm Calm - 0.01 in   Overcast
10:53 AM 66.9 °F 59.0 °F 76% 30.14 in 10.0 mi NE 3.5 mph - N/A   Overcast
11:53 AM 69.1 °F 57.9 °F 68% 30.13 in 10.0 mi NNE 5.8 mph - N/A   Partly Cloudy
12:53 PM 73.9 °F 57.9 °F 57% 30.11 in 10.0 mi NNE 12.7 mph - N/A   Scattered Clouds
1:53 PM 77.0 °F 57.0 °F 50% 30.09 in 10.0 mi NE 8.1 mph 17.3 mph N/A   Partly Cloudy
2:53 PM 78.1 °F 57.0 °F 48% 30.08 in 10.0 mi NNE 12.7 mph - N/A   Scattered Clouds
3:53 PM 75.9 °F 57.0 °F 52% 30.06 in 10.0 mi NE 8.1 mph - N/A   Scattered Clouds
4:53 PM 75.9 °F 57.0 °F 52% 30.05 in 10.0 mi NE 9.2 mph - N/A   Clear
5:53 PM 75.0 °F 57.9 °F 55% 30.06 in 10.0 mi NE 5.8 mph - N/A   Partly Cloudy
6:53 PM 73.9 °F 59.0 °F 59% 30.06 in 10.0 mi NE 6.9 mph - N/A   Overcast
7:53 PM 72.0 °F 60.1 °F 66% 30.06 in 10.0 mi NNE 4.6 mph - N/A   Overcast
8:53 PM 71.1 °F 59.0 °F 66% 30.08 in 10.0 mi ENE 4.6 mph - N/A   Overcast
9:53 PM 71.1 °F 60.1 °F 68% 30.11 in 10.0 mi NNE 5.8 mph - N/A   Overcast
10:53 PM 70.0 °F 60.1 °F 71% 30.10 in 10.0 mi NNE 4.6 mph - N/A   Overcast
11:53 PM 70.0 °F 61.0 °F 73% 30.09 in 10.0 mi NNE 4.6 mph - N/A   Overcast